Location: Cheyres
(46.8153°N, 6.7877°E)
Time: 00:49:03
(UTC+00:00)

Tiros 1 - Pass Details

Date: 28 May 2022
Orbit: 629 x 663 km, 48.4° (Epoch: 05 July)

Event Time Altitude Azimuth Distance (km) Brightness Sun altitude
Exits shadow 00:06:31 53° 151° (SSE) 776 7.2 -21.3°
Drops below altitude 10° 00:11:00 10° 77° (ENE) 2,023 10.0 -21.1°
Sets 00:13:23 0° 72° (ENE) 2,939 10.9 -21.1°
